Regional Weather Roundup
Issued by NWS

Home | Current Version | Previous Version | Text Only | Print | Product List | Glossary Off
Versions: 1 2 3 4 5 6 7 8 9 10 11 12 13 14 15 16 17 18 19 20 21 22 23 24 25 26 27 28 29 30 31 32 33 34 35 36 37 38 39 40 41 42 43 44 45 46 47 48 49 50

000
ASUS43 KOAX 300302
RWRNE

WEATHER ROUNDUP FOR NEBRASKA
NATIONAL WEATHER SERVICE OMAHA NE
1000 PM CDT SAT AUG 29 2015

NOTES: SATELLITE DATA IS BEING USED TO AUGMENT CLOUD COVER ABOVE
       12000 FEET.
       "FAIR" INDICATES FEW OR NO CLOUDS BELOW 12,000 FEET WITH NO
       SIGNIFICANT WEATHER AND/OR OBSTRUCTIONS TO VISIBILITY.

  * THESE STATIONS DO NOT REPORT WEATHER SUCH AS RAIN...SNOW OR FOG.

NEZ001>004-019>022-054>056-300400-
NEBRASKA PANHANDLE

CITY           SKY/WX    TMP DP  RH WIND       PRES   REMARKS
SCOTTSBLUFF    CLEAR     68  48  48 E8        30.04R
ALLIANCE       PTCLDY    70  44  39 S9        30.05R
CHADRON        PTCLDY    75  40  28 SE12      29.96R HAZE
KIMBALL        CLEAR     64  42  44 S8        30.11R
SIDNEY         CLEAR     69  42  37 S9        30.11R
$$

NEZ057>060-069>072-079>082-300400-
SOUTHWEST NEBRASKA

CITY           SKY/WX    TMP DP  RH WIND       PRES   REMARKS
NORTH PLATTE   CLEAR     65  62  90 E8        30.06R
IMPERIAL       CLEAR     69  52  54 SE8       30.08R
LEXINGTON      CLEAR     70  63  78 SE6       30.07R
MC COOK        CLEAR     72  55  55 SE8       30.07R
OGALLALA       CLEAR     76  52  43 SE12      30.05S
$$

NEZ005>010-023>029-035>040-094-300400-
NORTH CENTRAL NEBRASKA

CITY           SKY/WX    TMP DP  RH WIND       PRES   REMARKS
VALENTINE      CLEAR     76  57  51 S12       29.99R
AINSWORTH      CLEAR     73  61  66 S9        30.02R
BROKEN BOW     CLEAR     70  64  81 S5        30.06R
O`NEILL        MOCLDY    70  67  88 S8        30.02R
ORD            CLEAR     70  62  76 S5        30.03R
THEDFORD       CLEAR     74  61  64 S12       30.05R
$$

NEZ041-046>049-061>064-073>077-083>087-300400-
SOUTH CENTRAL NEBRASKA

CITY           SKY/WX    TMP DP  RH WIND       PRES   REMARKS
GRAND ISLAND   CLEAR     66  62  87 S5        30.06R
AURORA         CLEAR     65  65 100 SE6       30.05S
HASTINGS       CLEAR     69  61  75 SE6       30.06R
HEBRON         CLEAR     64  60  87 CALM      30.06R
HOLDREGE       CLEAR     63  60  88 SE6       30.07R
KEARNEY *      CLEAR     66  61  82 SE5       30.06R
YORK           CLOUDY    64  64 100 SE8       30.05S
$$

NEZ011>018-030>034-042>045-300400-
NORTHEAST NEBRASKA

CITY           SKY/WX    TMP DP  RH WIND       PRES   REMARKS
NORFOLK        CLEAR     65  64  97 S7        30.04R
ALBION         CLEAR     65  62  92 CALM      30.05R
BLAIR          MOCLDY    62  60  93 CALM      30.06R
COLUMBUS *     CLEAR    N/A N/A N/A SE3       30.05S
FREMONT        CLEAR     63  61  93 SE5       30.06R
TEKAMAH        CLEAR     61  60  97 SE3       30.05R
$$

NEZ050>053-065>068-078-088>093-300400-
SOUTHEAST NEBRASKA

CITY           SKY/WX    TMP DP  RH WIND       PRES   REMARKS
LINCOLN        PTCLDY    64  61  90 SE8       30.06R
OMAHA EPPLEY   MOCLDY    68  65  90 E6        30.06R
BEATRICE       CLOUDY    63  61  91 CALM      30.07R
FALLS CITY     CLEAR     62  61  96 NW3       30.06R
NEBRASKA CITY  CLOUDY    65  64  95 CALM      30.07S
PLATTSMOUTH    CLOUDY    65  62  90 CALM      30.06S
$$

NEZ044-045-051>053-067-300400-
OMAHA AREA

CITY           SKY/WX    TMP DP  RH WIND       PRES   REMARKS
EPPLEY FIELD   MOCLDY    68  65  90 E6        30.06R
BLAIR          MOCLDY    62  60  93 CALM      30.06R
FREMONT        CLEAR     63  61  93 SE5       30.06R
MILLARD        CLOUDY    64  63  94 CALM      30.05R
OFFUTT AFB     CLOUDY    67  64  89 S2        30.05R
PLATTSMOUTH    CLOUDY    65  62  90 CALM      30.06S
WAHOO          FAIR      60  59  96 S5        30.06R FOG
$$



USA.gov is the U.S. government's official web portal to all federal, state and local government web resources and services.